TimeCDT,TemperatureF,Dew PointF,Humidity,Sea Level PressureIn,VisibilityMPH,Wind Direction,Wind SpeedMPH,Gust SpeedMPH,PrecipitationIn,Events,Conditions,WindDirDegrees,DateUTC
12:11 AM,23.0,19.4,86,30.04,2.0,North,26.5,36.8,0.00,Snow,Light Snow,350,2013-04-10 05:11:00
12:32 AM,21.2,19.4,93,30.01,3.0,North,20.7,31.1,0.00,Snow,Light Snow,350,2013-04-10 05:32:00
12:50 AM,23.0,19.4,86,30.04,6.0,North,25.3,35.7,0.00,Rain,Light Freezing Rain,360,2013-04-10 05:50:00
12:53 AM,23.0,19.9,88,30.15,6.0,NNW,20.7,33.4,0.00,Rain,Light Freezing Rain,340,2013-04-10 05:53:00
1:14 AM,23.0,19.4,86,30.10,10.0,North,19.6,25.3,0.00,,Overcast,350,2013-04-10 06:14:00
1:53 AM,23.0,19.9,88,30.11,8.0,North,25.3,31.1,0.00,,Overcast,360,2013-04-10 06:53:00
2:08 AM,23.0,19.4,86,30.00,5.0,North,23.0,29.9,0.00,Rain,Light Freezing Rain,350,2013-04-10 07:08:00
2:28 AM,23.0,19.4,86,30.02,3.0,NNW,23.0,27.6,0.00,Snow,Light Snow,340,2013-04-10 07:28:00
2:35 AM,23.0,19.4,86,30.02,2.5,NNW,19.6,28.8,0.00,Snow,Light Snow,330,2013-04-10 07:35:00
2:53 AM,21.9,19.9,92,30.07,2.5,North,21.9,31.1,0.00,,Overcast,360,2013-04-10 07:53:00
2:58 AM,21.2,19.4,93,30.02,3.0,NNW,20.7,31.1,0.00,Rain,Light Freezing Rain,340,2013-04-10 07:58:00
3:20 AM,21.2,19.4,93,30.04,2.5,North,20.7,28.8,0.00,Snow,Light Snow,350,2013-04-10 08:20:00
3:39 AM,21.2,21.2,100,30.02,1.8,NNW,19.6,26.5,0.00,Snow,Light Snow,340,2013-04-10 08:39:00
3:42 AM,21.2,19.4,93,30.01,2.0,NNW,26.5,55.2,0.00,Snow,Light Snow,340,2013-04-10 08:42:00
3:49 AM,21.2,19.4,93,30.02,2.0,NNW,21.9,55.2,0.00,Snow,Light Snow,340,2013-04-10 08:49:00
3:53 AM,21.9,19.9,92,30.12,2.0,NNW,20.7,-,0.00,Snow,Light Snow,340,2013-04-10 08:53:00
4:06 AM,21.2,21.2,100,30.04,2.5,NNW,21.9,27.6,0.00,,Overcast,330,2013-04-10 09:06:00
4:10 AM,21.2,19.4,93,30.04,3.0,NW,25.3,50.6,0.00,Rain,Light Freezing Rain,320,2013-04-10 09:10:00
4:24 AM,23.0,19.4,86,30.03,3.0,NNW,21.9,50.6,0.00,Rain,Light Freezing Rain,330,2013-04-10 09:24:00
4:43 AM,23.0,19.4,86,30.02,3.0,NNW,18.4,26.5,0.00,Snow,Light Snow,340,2013-04-10 09:43:00
4:50 AM,23.0,19.4,86,30.03,2.5,NNW,18.4,25.3,0.00,Snow,Light Snow,330,2013-04-10 09:50:00
4:53 AM,23.0,19.9,88,30.12,3.0,NNW,17.3,25.3,0.00,,Overcast,340,2013-04-10 09:53:00
5:06 AM,23.0,21.2,93,30.02,4.0,NNW,18.4,-,0.00,Rain,Light Freezing Rain,340,2013-04-10 10:06:00
5:44 AM,23.0,19.4,86,29.98,8.0,NNW,19.6,-,0.00,,Overcast,340,2013-04-10 10:44:00
5:53 AM,23.0,19.9,88,30.09,4.0,NNW,19.6,-,0.00,Snow,Light Snow,340,2013-04-10 10:53:00
6:03 AM,23.0,19.4,86,29.98,2.5,NNW,19.6,25.3,0.00,Snow,Light Snow,340,2013-04-10 11:03:00
6:13 AM,23.0,19.4,86,29.98,3.0,NNW,23.0,-,0.00,Snow,Light Snow,340,2013-04-10 11:13:00
6:53 AM,23.0,19.0,85,30.12,8.0,NNW,17.3,26.5,0.00,,Overcast,340,2013-04-10 11:53:00
7:04 AM,21.2,19.4,93,30.03,7.0,NNW,18.4,25.3,0.00,,Overcast,340,2013-04-10 12:04:00
7:27 AM,21.2,19.4,93,30.03,8.0,NNW,18.4,24.2,0.00,,Overcast,340,2013-04-10 12:27:00
7:53 AM,21.9,19.0,89,30.13,5.0,NNW,18.4,-,0.00,,Overcast,340,2013-04-10 12:53:00
8:49 AM,21.2,19.4,93,30.02,5.0,NNW,20.7,27.6,0.00,,Overcast,340,2013-04-10 13:49:00
8:53 AM,21.9,19.0,89,30.12,6.0,NNW,19.6,27.6,0.00,,Overcast,340,2013-04-10 13:53:00
9:53 AM,23.0,19.9,88,30.12,10.0,NNW,16.1,-,N/A,,Overcast,340,2013-04-10 14:53:00
10:53 AM,25.0,21.0,85,30.13,5.0,NNW,18.4,-,0.00,,Overcast,340,2013-04-10 15:53:00
11:49 AM,26.6,21.2,80,30.03,7.0,North,18.4,-,0.00,,Overcast,350,2013-04-10 16:49:00
11:53 AM,26.1,21.9,84,30.12,8.0,North,17.3,-,0.00,,Overcast,350,2013-04-10 16:53:00
12:53 PM,27.0,23.0,85,30.10,10.0,NNW,19.6,24.2,N/A,,Overcast,340,2013-04-10 17:53:00
1:53 PM,27.0,23.0,85,30.09,10.0,NNW,17.3,-,N/A,,Overcast,340,2013-04-10 18:53:00
2:53 PM,27.0,23.0,85,30.08,10.0,NNW,18.4,-,N/A,,Overcast,340,2013-04-10 19:53:00
3:53 PM,27.0,23.0,85,30.03,10.0,NNW,20.7,25.3,N/A,,Overcast,340,2013-04-10 20:53:00
4:25 PM,26.6,23.0,86,29.95,9.0,North,17.3,-,N/A,,Overcast,350,2013-04-10 21:25:00
4:53 PM,27.0,23.0,85,30.02,10.0,NNW,17.3,-,0.00,,Overcast,340,2013-04-10 21:53:00
5:53 PM,26.1,23.0,88,29.99,7.0,North,20.7,29.9,0.00,,Overcast,350,2013-04-10 22:53:00
6:03 PM,26.6,23.0,86,29.92,6.0,North,18.4,28.8,0.00,Snow,Light Snow,350,2013-04-10 23:03:00
6:53 PM,26.1,23.0,88,29.99,6.0,North,17.3,26.5,0.00,Snow,Light Snow,350,2013-04-10 23:53:00
7:30 PM,26.6,23.0,86,29.90,5.0,NNW,15.0,-,0.00,Rain,Light Freezing Rain,340,2013-04-11 00:30:00
7:49 PM,26.6,23.0,86,29.90,4.0,North,16.1,-,0.00,Rain,Light Freezing Rain,350,2013-04-11 00:49:00
7:53 PM,26.1,23.0,88,29.99,4.0,North,18.4,-,0.00,Rain,Light Freezing Rain,350,2013-04-11 00:53:00
8:09 PM,26.6,23.0,86,29.91,3.0,NNW,13.8,-,0.00,Rain,Light Freezing Rain,340,2013-04-11 01:09:00
8:22 PM,26.6,23.0,86,29.90,4.0,North,16.1,23.0,0.00,Snow,Light Snow,350,2013-04-11 01:22:00
8:49 PM,26.6,24.8,93,29.90,4.0,NNW,16.1,-,0.00,Rain,Light Freezing Rain,330,2013-04-11 01:49:00
8:53 PM,26.1,24.1,92,29.99,4.0,NNW,15.0,-,0.00,Rain,Light Freezing Rain,340,2013-04-11 01:53:00
9:06 PM,26.6,23.0,86,29.90,4.0,NNW,13.8,-,0.00,Rain,Light Freezing Rain,330,2013-04-11 02:06:00
9:53 PM,26.1,24.1,92,29.99,6.0,NNW,13.8,-,0.00,Rain,Light Freezing Rain,330,2013-04-11 02:53:00
10:41 PM,26.6,24.8,93,29.90,4.0,NW,12.7,-,0.00,Snow,Light Snow,320,2013-04-11 03:41:00
10:53 PM,26.1,24.1,92,29.98,3.0,NW,13.8,-,0.00,Snow,Light Snow,320,2013-04-11 03:53:00
11:08 PM,26.6,24.8,93,29.89,2.5,NW,12.7,-,0.00,Snow,Light Snow,320,2013-04-11 04:08:00
11:15 PM,26.6,24.8,93,29.89,1.8,NNW,12.7,-,0.00,Snow,Light Snow,330,2013-04-11 04:15:00
11:24 PM,26.6,24.8,93,29.88,1.2,NNW,12.7,-,0.00,Snow,Light Snow,330,2013-04-11 04:24:00
11:43 PM,26.6,24.8,93,29.88,1.5,NW,11.5,-,0.01,Snow,Light Snow,320,2013-04-11 04:43:00
11:53 PM,26.1,24.1,92,29.95,1.5,NW,12.7,-,0.01,Snow,Light Snow,320,2013-04-11 04:53:00